TimeEST,TemperatureF,Dew PointF,Humidity,Sea Level PressureIn,VisibilityMPH,Wind Direction,Wind SpeedMPH,Gust SpeedMPH,PrecipitationIn,Events,Conditions,WindDirDegrees,DateUTC
12:51 AM,30.2,28.4,93,30.15,3.0,SSE,3.5,-,0.01,Snow,Light Snow,150,2012-12-12 05:51:00
12:54 AM,30.9,28.9,92,30.17,3.0,SSE,3.5,-,0.01,Snow,Light Snow,160,2012-12-12 05:54:00
1:54 AM,32.0,28.9,88,30.19,5.0,NW,5.8,-,0.01,Snow,Light Snow,310,2012-12-12 06:54:00
2:54 AM,32.0,28.0,85,30.22,5.0,West,5.8,-,0.01,Snow,Light Snow,280,2012-12-12 07:54:00
3:54 AM,32.0,25.0,75,30.23,8.0,WSW,6.9,-,0.00,Snow,Light Snow,240,2012-12-12 08:54:00
4:36 AM,32.0,26.6,80,30.21,8.0,WSW,5.8,-,N/A,Snow,Light Snow,240,2012-12-12 09:36:00
4:54 AM,32.0,26.1,79,30.24,9.0,SW,5.8,-,0.01,Snow,Light Snow,230,2012-12-12 09:54:00
5:54 AM,32.0,23.0,69,30.26,10.0,West,6.9,-,0.00,Snow,Light Snow,260,2012-12-12 10:54:00
6:54 AM,32.0,24.8,75,30.26,10.0,SSW,6.9,-,N/A,,Mostly Cloudy,210,2012-12-12 11:54:00
7:54 AM,32.0,24.1,73,30.30,10.0,SSW,6.9,-,N/A,,Scattered Clouds,210,2012-12-12 12:54:00
8:33 AM,33.8,26.6,75,30.27,10.0,SSW,5.8,-,N/A,,Mostly Cloudy,200,2012-12-12 13:33:00
8:54 AM,34.0,26.1,73,30.30,10.0,SSW,12.7,-,N/A,,Mostly Cloudy,200,2012-12-12 13:54:00
9:54 AM,35.1,26.1,70,30.32,9.0,SSW,15.0,-,0.00,,Mostly Cloudy,200,2012-12-12 14:54:00
10:54 AM,35.1,27.0,72,30.35,4.0,SSW,13.8,24.2,0.00,Snow,Light Snow,210,2012-12-12 15:54:00
11:54 AM,36.0,28.9,76,30.35,5.0,SW,18.4,26.5,0.00,Snow,Light Snow,230,2012-12-12 16:54:00
12:50 PM,37.4,30.2,75,30.31,8.0,SW,13.8,27.6,0.00,Rain-Snow,Light Snow,230,2012-12-12 17:50:00
12:54 PM,37.0,30.0,76,30.35,6.0,SW,15.0,27.6,0.00,Rain-Snow,Light Snow,230,2012-12-12 17:54:00
1:30 PM,37.4,30.2,75,30.32,10.0,SW,15.0,25.3,0.00,,Mostly Cloudy,230,2012-12-12 18:30:00
1:54 PM,37.9,30.0,73,30.35,10.0,WSW,19.6,25.3,0.00,Rain-Snow,Light Snow,250,2012-12-12 18:54:00
2:51 PM,37.4,30.2,75,30.33,10.0,SW,12.7,-,0.00,,Mostly Cloudy,230,2012-12-12 19:51:00
2:54 PM,37.9,30.9,76,30.36,10.0,WSW,15.0,-,0.00,,Mostly Cloudy,240,2012-12-12 19:54:00
3:54 PM,37.9,30.0,73,30.37,10.0,WSW,13.8,-,N/A,,Mostly Cloudy,240,2012-12-12 20:54:00
4:54 PM,37.9,30.0,73,30.38,10.0,WSW,13.8,-,N/A,,Mostly Cloudy,240,2012-12-12 21:54:00
5:54 PM,37.0,28.9,73,30.39,10.0,WSW,9.2,-,N/A,,Scattered Clouds,240,2012-12-12 22:54:00
7:54 PM,34.0,28.9,82,30.40,10.0,SSW,8.1,-,N/A,,Scattered Clouds,200,2012-12-13 00:54:00
8:54 PM,32.0,27.0,82,30.41,10.0,South,5.8,-,N/A,,Partly Cloudy,190,2012-12-13 01:54:00
9:54 PM,32.0,26.1,79,30.41,10.0,South,5.8,-,N/A,,Partly Cloudy,180,2012-12-13 02:54:00
10:54 PM,32.0,25.0,75,30.42,10.0,South,4.6,-,N/A,,Partly Cloudy,180,2012-12-13 03:54:00
11:54 PM,32.0,24.1,73,30.43,10.0,SSW,5.8,-,N/A,,Partly Cloudy,210,2012-12-13 04:54:00